#timestamp,LO_Frequency,Hit,StdDev 
1561712415.1,286047003.7,N
1561712435.8,286046999.9,N
1561712455.7,286046999.0,N
1561712475.5,286046995.3,N
1561712495.4,286046995.8,N
1561712515.2,286046993.9,N
1561712535.0,286046996.3,N
1561712535.9,286046996.3,N
1561712555.8,286046996.4,N
1561712575.6,286046993.8,N
1561712595.5,286046991.8,N
1561712615.3,286046994.4,N
1561712635.1,286046994.8,N
1561712655.9,286046991.7,Y
1561712675.7,286046996.8,P
1561712695.5,286046996.5,P
1561712715.4,286047001.1,N
1561712735.2,286047001.2,N
1561712755.1,286046998.5,N
1561712756.0,286046998.5,N
1561712775.8,286046999.9,N
1561712795.6,286046999.7,N
1561712815.5,286047000.4,N
1561712835.3,286047001.8,N
1561712855.1,286047001.5,N
1561712875.9,286047002.0,N
1561712895.7,286047005.9,N
1561712915.6,286047003.7,N
1561712935.4,286047004.0,N
1561712955.2,286047003.6,N
1561712975.1,286047004.1,N
1561712976.0,286047004.1,N
1561712995.8,286047001.3,N
1561713015.6,286047002.6,N
1561713035.5,286047000.6,N
1561713055.3,286047000.8,N
1561713075.2,286046999.5,N
1561713095.9,286046996.8,N
1561713115.7,286046998.2,N
1561713135.6,286046996.6,N
1561713155.4,286046997.1,N
1561713175.2,286046996.5,N
1561713195.1,286046997.1,N
1561713196.0,286046997.1,N
1561713215.8,286047001.3,N
1561713235.7,286047002.4,N
1561713255.5,286046998.4,N
1561713275.3,286046995.6,N
1561713295.2,286046990.6,Y
1561713315.0,286046989.4,P
1561713315.9,286046989.4,N
1561713335.8,286046989.3,N
1561713355.6,286046986.6,N
1561713375.4,286046986.7,N
1561713395.3,286046980.5,Y
1561713415.1,286046988.5,P
1561713435.8,286046987.6,P
1561713455.7,286046987.1,P
1561713475.5,286046987.0,Y
1561713495.4,286046998.8,P
1561713515.2,286046996.8,N
1561713535.0,286046997.2,N
1561713535.9,286046997.2,N
1561713555.8,286046997.7,N
1561713575.6,286046997.6,N
1561713595.5,286046996.1,N
1561713615.3,286046993.3,N
1561713635.1,286046994.7,N
1561713655.9,286046991.4,N
1561713675.7,286046991.2,N
1561713695.6,286046990.5,Y
1561713715.4,286046995.0,P
1561713735.2,286046997.5,P
1561713755.1,286046999.1,N
1561713756.0,286046999.1,N
1561713775.8,286046998.0,N
1561713795.6,286046993.3,Y
1561713815.5,286046996.2,P
1561713835.3,286046995.3,P
1561713855.2,286046998.0,N
1561713875.9,286046996.3,Y
1561713895.7,286046998.0,P
1561713915.6,286046995.0,P
1561713935.4,286046997.9,N
1561713955.2,286046996.8,N
1561713975.1,286046994.9,Y
1561713976.0,286046994.9,P
1561713995.8,286046998.4,N
1561714015.7,286047000.4,N
1561714035.5,286046999.8,N
1561714055.3,286047002.4,N
1561714075.2,286047002.2,N
1561714095.0,286047000.1,N
1561714095.9,286047000.1,N
1561714115.8,286047004.4,N
1561714135.6,286047001.9,N
1561714155.4,286047003.0,N
1561714175.3,286047005.2,N
1561714195.1,286047003.5,N
1561714215.8,286047007.6,N
1561714235.7,286047007.1,N
1561714255.5,286047004.5,N
1561714275.4,286047004.5,N
1561714295.2,286047004.7,N
1561714315.0,286047006.1,N
1561714315.9,286047006.1,N
1561714335.8,286047006.6,N
1561714355.6,286047007.5,N
1561714375.5,286047007.4,N
1561714395.3,286047006.3,N
1561714415.1,286047009.0,N
1561714435.9,286047008.6,N
1561714455.7,286047010.6,N
1561714475.5,286047010.1,N
1561714495.4,286047007.7,N
1561714515.2,286047010.6,N
1561714535.1,286047008.5,N
1561714536.0,286047008.5,N
1561714555.8,286047006.6,N
1561714575.6,286047006.7,N
1561714595.5,286047008.1,N
1561714615.3,286047008.4,Y
1561714635.2,286047005.1,P
1561714655.9,286047005.4,P
1561714675.7,286047006.0,P
1561714695.6,286047003.2,Y
1561714715.4,286046999.2,P
1561714735.3,286047001.2,N
1561714755.1,286046996.5,N
1561714756.0,286046996.5,N
1561714775.8,286046996.8,N
1561714795.7,286046998.0,N
1561714815.5,286046998.0,N
1561714835.3,286046997.7,N
1561714855.2,286046995.4,N
1561714875.0,286046994.3,N
1561714875.9,286046994.3,N
1561714895.8,286046994.2,N
1561714915.6,286046993.7,N
1561714935.4,286046993.5,N
1561714955.3,286046995.2,N
1561714975.1,286046993.3,N
1561714995.9,286046995.8,N
1561715015.7,286046996.0,N
1561715035.5,286046994.0,N
1561715055.4,286046996.1,N
1561715075.2,286046997.2,N
1561715095.0,286046999.2,N
1561715095.9,286046999.2,N
1561715115.8,286046995.6,N
1561715135.6,286046992.0,N
1561715155.5,286046991.4,Y
1561715175.3,286046994.2,P
1561715195.1,286046994.1,P
1561715215.9,286046993.6,P
1561715235.7,286046995.4,Y
1561715255.6,286047001.5,P
1561715275.4,286047002.6,N
1561715295.2,286047000.8,N
1561715315.1,286046999.4,N
1561715316.0,286046999.4,N
1561715335.8,286046995.4,N
1561715355.6,286046993.5,N
1561715375.5,286046991.7,N
1561715395.3,286046994.3,N
1561715415.1,286046991.7,N
1561715435.9,286046993.1,N
1561715455.7,286046993.1,N
1561715475.6,286046991.7,N
1561715495.4,286046993.5,N
1561715515.2,286046993.9,N
1561715535.1,286046995.0,N
1561715536.0,286046995.0,N
1561715555.8,286046995.2,N
1561715575.7,286046997.3,N
1561715595.5,286046998.6,N
1561715615.3,286046999.6,N
1561715635.2,286046999.2,N
1561715655.0,286046999.4,N
1561715655.9,286046999.4,N
1561715675.7,286046998.2,N
1561715725.6,286047000.5,E
1561715735.5,286046999.0,N
1561715755.4,286047000.6,P
1561715775.2,286046998.3,N
1561715795.0,286046998.1,N
1561715796.0,286046998.1,N
1561715815.8,286046998.1,N
1561715835.6,286046999.5,N
1561715855.5,286046998.1,N
1561715875.3,286046999.7,N
1561715895.1,286047001.6,N
1561715915.9,286047003.9,Y
1561715935.7,286047002.9,P
1561715955.6,286047003.6,N
1561715975.4,286047003.9,N
1561715995.2,286047004.1,N
